Regional Weather Roundup
Issued by NWS

Home | Current Version | Previous Version | Graphics & Text | Print | Product List | Glossary On
Versions: 1 2 3 4 5 6 7 8 9 10 11 12 13 14 15 16 17 18 19 20 21 22 23 24 25 26 27 28 29 30 31 32 33 34 35 36 37 38 39 40 41 42 43 44 45 46 47 48 49 50
000
ASUS43 KDMX 250603
RWRIA

WEATHER ROUNDUP FOR IOWA
NATIONAL WEATHER SERVICE DES MOINES IA
100 AM CDT MON JUL 25 2016

NOTE: "FAIR" INDICATES FEW OR NO CLOUDS BELOW 12,000 FEET WITH NO
SIGNIFICANT WEATHER AND/OR OBSTRUCTIONS TO VISIBILITY.

* - THESE STATIONS ARE NOT NWS STATIONS...THUS NOT UNDER NWS
QUALITY CONTROL.  THEY ALSO DO NOT REPORT WEATHER SUCH
AS PRECIPITATION OR FOG.

IAZ001>003-012>014-020>022-031>034-043>046-250700-
   NORTHWEST IOWA

CITY           SKY/WX    TMP DP  RH WIND       PRES   REMARKS
CARROLL *      CLEAR     66  64  94 CALM      30.06S
CHEROKEE *     PTCLDY    66  65  94 CALM      30.08R
LE MARS *      CLEAR     66  63  88 CALM      30.09S
SHELDON *      CLEAR     63  63 100 CALM      30.08R
SIOUX CITY     PTCLDY    69  64  84 N7        30.07F
6HR MIN TEMP:  68; 6HR MAX TEMP:  82;

SPENCER        CLEAR     63  61  93 CALM      30.07S
6HR MIN TEMP:  63; 6HR MAX TEMP:  75;

STORM LAKE *   CLEAR     68  64  88 NW8       30.09R
$$

IAZ055>058-069>071-079>083-090>094-250700-
   SOUTHWEST IOWA

CITY           SKY/WX    TMP DP  RH WIND       PRES   REMARKS
ATLANTIC *     CLEAR     70  66  88 N9        30.06R
CLARINDA *       N/A     68  68 100 MISG      30.08R
COUNCIL BLFS *   N/A     70  66  88 N8        30.07R
CRESTON *      CLEAR     72  66  83 NE6G12    30.07R
HARLAN  *      PTCLDY    68  66  94 CALM      30.10S
LAMONI         CLOUDY    73  68  84 NE7       30.03S
6HR MIN TEMP:  73; 6HR MAX TEMP:  79;

RED OAK *      PTCLDY    70  66  88 CALM      30.06R
SHENANDOAH *   CLEAR     68  68 100 CALM      30.06R
$$

IAZ047>049-059>061-072>074-084-250700-
   CENTRAL IOWA

CITY           SKY/WX    TMP DP  RH WIND       PRES   REMARKS
AMES           CLEAR     69  67  93 NW8       30.05R
6HR MIN TEMP:  69; 6HR MAX TEMP:  80;

ANKENY *         N/A    N/A N/A N/A MISG        N/A
BOONE *          N/A     70  66  88 NW7       30.05R
CHARITON *       N/A    N/A N/A N/A MISG        N/A
DES MOINES     PTCLDY    74  64  71 N6        30.04R
6HR MIN TEMP:  74; 6HR MAX TEMP:  82;

GRINNELL*      CLEAR     67  64  90 NW3       30.05R
KNOXVILLE *    CLEAR     73  64  73 N13       30.02R
MARSHALLTOWN   CLEAR     66  65  96 CALM      30.04R
6HR MIN TEMP:  65; 6HR MAX TEMP:  78;

NEWTON *       CLEAR     68  64  88 N8        30.04R
PELLA *        CLEAR     69  65  86 N5        30.04R
PERRY *          N/A     67  66  97 NW5       30.06R
$$

IAZ004>006-015-016-023>025-035-036-250700-
   NORTH CENTRAL IOWA

CITY           SKY/WX    TMP DP  RH WIND       PRES   REMARKS
ALGONA *       CLEAR     68  64  88 W8        30.06R
ESTHERVILLE    CLEAR     64  63  96 W6        30.06R
6HR MIN TEMP:  64; 6HR MAX TEMP:  74;

FORT DODGE *   CLEAR     66  63  88 NW3       30.06R
MASON CITY     CLEAR     66  64  93 W9        30.05S
6HR MIN TEMP:  65; 6HR MAX TEMP:  76;

FOREST CITY *    N/A     64  64 100 W3        30.04S
IOWA FALLS *     N/A     67  64  91 W3        30.06R
$$

IAZ007>011-017>019-026>030-037>042-050>054-066-250700-
   NORTHEAST IOWA

CITY           SKY/WX    TMP DP  RH WIND       PRES   REMARKS
CEDAR RAPIDS   CLOUDY    67  67 100 NW6       30.01R
6HR MIN TEMP:  67; 6HR MAX TEMP:  80;

CHARLES CITY * PTCLDY    66  66 100 NW6       30.03R
CLINTON *      CLOUDY    71  68  90 NW5       29.99R
DECORAH *      PTCLDY    68  66  94 CALM      30.00R
DUBUQUE        CLOUDY    71  65  81 N7        30.02R
6HR MIN TEMP:  70; 6HR MAX TEMP:  81;

MONTICELLO *   PTCLDY    68  66  94 CALM      30.01R
OELWEIN *      CLOUDY    68  66  94 NW7       30.03R
WATERLOO       CLOUDY    68  64  87 CALM      30.01R
6HR MIN TEMP:  68; 6HR MAX TEMP:  78;

$$

IAZ064-065-067-068-078-250700-
   EAST CENTRAL IOWA

CITY           SKY/WX    TMP DP  RH WIND       PRES   REMARKS
DAVENPORT      CLOUDY    72  67  84 N7        29.99R
6HR MIN TEMP:  71; 6HR MAX TEMP:  86;

IOWA CITY      CLOUDY    75  66  73 N10       30.02R
6HR MIN TEMP:  75; 6HR MAX TEMP:  85;

MT. PLEASANT *   N/A     74  70  87 N5        30.02R
MUSCATINE *    CLOUDY    73  66  78 N7        30.00R
QUAD CITIES    CLOUDY    78  66  66 NW7       29.98R HX  80
6HR MIN TEMP:  74; 6HR MAX TEMP:  89;

$$

IAZ062-063-075>077-085>089-095>099-250700-
   SOUTHEAST IOWA

CITY           SKY/WX    TMP DP  RH WIND       PRES   REMARKS
BURLINGTON     CLOUDY    75  70  84 N8        29.99R
6HR MIN TEMP:  74; 6HR MAX TEMP:  86; 6HR PCP:  0.03;

FAIRFIELD *    CLOUDY    72  68  88 N7        30.01S
KEOKUK *       CLOUDY    75  70  83 N8        29.99S
CENTERVILLE *    N/A     73  66  78 CALM      30.04R
OTTUMWA        CLOUDY    71  66  84 N6        30.01R
6HR MIN TEMP:  70; 6HR MAX TEMP:  81;

WASHINGTON *   CLOUDY    73  68  83 N12       30.02R
$$

ABBREVIATIONS USED IN REMARKS
   TC - TEMPERATURES IN CELSIUS
  WCI - WIND CHILL INDEX
   HX - HEAT INDEX
  VSB - VISIBILITY
$$




USA.gov is the U.S. government's official web portal to all federal, state and local government web resources and services.